Location: Unspecified
(0.0000°N, 0.0000°E)
Time: 23:46:32
(UTC+00:00)

Envisat - Pass Details

Date: 20 January 2022
Orbit: 764 x 766 km, 98.2° (Epoch: 27 January)

Event Time Altitude Azimuth Distance (km) Brightness Sun altitude
Rises 04:54:19 0° 359° (N) 3,212 6.0 -17.9°
Reaches altitude 10° 04:56:43 10° 352° (N) 2,289 5.2 -17.4°
Maximum altitude 05:01:27 42° 282° (WNW) 1,082 3.3 -16.3°
Drops below altitude 10° 05:06:13 10° 212° (SSW) 2,300 5.4 -15.2°
Sets 05:08:38 0° 205° (SSW) 3,228 6.2 -14.6°
